Regional Weather Roundup
Issued by NWS Kansas City/Pleasant Hill, MO

Home | Current Version | Previous Version | Graphics & Text | Print | Product List | Glossary Off
Versions: 1 2 3 4 5 6 7 8 9 10 11 12 13 14 15 16 17 18 19 20 21 22 23 24 25 26 27 28

000
ASUS43 KEAX 260610
RWREAX

WEATHER ROUNDUP FOR EASTERN KANSAS AND NORTHWEST MISSOURI
NATIONAL WEATHER SERVICE KANSAS CITY/PLEASANT HILL MO
100 AM CDT WED JUL 26 2017

KSZ040-057-103>105-MOZ028-029-037-043-260700-
...KANSAS CITY METROPOLITAN AREA...

CITY           SKY/WX    TMP DP  RH WIND       PRES   REMARKS
K.C. INTL      PTCLDY    81  74  79 SE9       30.04S
6HR MIN TEMP:  81; 6HR MAX TEMP:  92;

K.C. DOWNTOWN  PTCLDY    85  74  69 SE5       30.03R HX  92
6HR MIN TEMP:  84; 6HR MAX TEMP:  93;

LEES SUMMIT    CLEAR     81  74  79 SE6       30.05S
6HR MIN TEMP:  81; 6HR MAX TEMP:  91;

OLATHE - IXD   CLEAR     80  73  79 SE6       30.05R
6HR MIN TEMP:  80; 6HR MAX TEMP:  90;

OLATHE - OJC   CLEAR     79  74  84 S7        30.05R
6HR MIN TEMP:  79; 6HR MAX TEMP:  88;

LAWRENCE       CLOUDY    76  74  93 E7        30.02R

$$

MOZ001>008-011>017-020>025-030>033-038>040-044>046-053-054-260700-
...NORTHERN AND CENTRAL MISSOURI...

CITY           SKY/WX    TMP DP  RH WIND       PRES   REMARKS
ST. JOSEPH     PTCLDY    82  76  81 SE10      30.02S
6HR MIN TEMP:  82; 6HR MAX TEMP:  91;

MOSBY          PTCLDY    79  73  83 SE3       30.04S
WARRENSBURG    CLOUDY    79  70  73 SE5       30.04S
WHITEMAN AFB   PTCLDY    77  77 100 S3        30.04S
6HR MIN TEMP:  77; 6HR MAX TEMP:  89;

CLINTON        CLEAR     75  73  94 CALM      30.06R
SEDALIA        PTCLDY    77  71  82 SE5       30.06F
6HR MIN TEMP:  76; 6HR MAX TEMP:  89;

WARSAW         NOT AVBL
CHILLICOTHE      N/A     78  71  79 VRB3      30.06R
6HR MIN TEMP:  78; 6HR MAX TEMP:  88;

KIRKSVILLE     PTCLDY    74  70  87 SE6       30.09R
6HR MIN TEMP:  72; 6HR MAX TEMP:  87;


$$

MOZ041-047>049-056>058-063>065-088>090-097-260700-
...EASTERN AND SOUTHERN MISSOURI...

CITY           SKY/WX    TMP DP  RH WIND       PRES   REMARKS
ST. LOUIS INTL PTCLDY    81  70  69 SE13      30.08F
6HR MIN TEMP:  81; 6HR MAX TEMP:  90;

SPIRIT OF STL  PTCLDY    80  73  79 SE7       30.05F
COLUMBIA       CLEAR     76  71  85 E6        30.05F
JEFFERSON CITY CLEAR     76  72  87 CALM      30.04S
ROLLA          CLEAR     76  72  87 E8        30.07F
OSAGE BEACH    CLOUDY    76  67  73 E3        30.06S
SPRINGFIELD    CLEAR     80  72  76 SW6       30.08S
BRANSON        CLEAR     79  68  69 CALM      30.11R
JOPLIN         CLEAR     80  73  79 S8        30.06S
WEST PLAINS    CLEAR     79  72  79 SW5       30.11R

$$

IAZ060-094-KSZ022-034>040-054-083-096-NEZ052-066-093-260700-
...KANSAS...SOUTHEAST NEBRASKA AND IOWA...

CITY           SKY/WX    TMP DP  RH WIND       PRES   REMARKS
TOPEKA         PTCLDY    81  72  74 SE5       30.01R
6HR MIN TEMP:  81; 6HR MAX TEMP:  92;

MANHATTAN      PTCLDY    84  71  65 S10       29.98R
EMPORIA        CLEAR     80  71  74 S13       30.02R
CHANUTE        CLEAR     80  72  76 S7        30.04S
WICHITA        CLOUDY    83  71  67 S14       30.00R
OMAHA          CLOUDY    83  75  77 SE15      29.97S HX  90
LINCOLN        MOCLDY    83  69  62 S15       29.96F
FALLS CITY     PTCLDY    77  73  87 SE7       30.00S
LAMONI         MOCLDY    77  72  84 S7        30.06S
DES MOINES     CLOUDY    79  73  82 S5        30.03R

$$





USA.gov is the U.S. government's official web portal to all federal, state and local government web resources and services.